Penn Yan, NY

4:16 PM EDT on April 22, 2018 (GMT -0400)
Penn Yan

Weather History for KPEO - April, 2014

Change the Weather History Date:

Monday, April 21, 2014

  Actual Average (KITH) Record (KITH)
Temperature  
Mean Temperature 64 °F -  
Max Temperature 78 °F 58 °F 81 °F (1957)
Min Temperature 50 °F 38 °F 0 °F (2011)
Degree Days  
Heating Degree Days 1    
Growing Degree Days 14 (Base 50)    
Moisture  
Dew Point 33 °F    
Average Humidity 38    
Maximum Humidity 66    
Minimum Humidity 17    
Precipitation  
Precipitation 0.00 in - - ()
Sea Level Pressure  
Sea Level Pressure 29.97 in    
Wind  
Wind Speed 12 mph (SSW)    
Max Wind Speed 20 mph    
Max Gust Speed 26 mph    
Visibility 10 miles    
Events      
Averages and records for this station are not official NWS values.
T = Trace of Precipitation, MM = Missing Value Source: NWS Daily Summary

Daily Weather History Graph

Daily Weather History Graph

Search for Another Location

Airport or City:

Astronomy

Apr. 21, 2014 Rise Set
Actual Time 6:17 AM EDT 7:57 PM EDT
Civil Twilight 5:47 AM EDT 8:27 PM EDT
Nautical Twilight 5:11 AM EDT 9:03 PM EDT
Astronomical Twilight 4:32 AM EDT 9:42 PM EDT
Moon 1:27 AM EDT (4/21) 11:40 AM EDT (4/21)
Length of Visible Light 14h 39m
Length of Day
13h 39m
Waning Gibbous, 58% of the Moon is Illuminated
Apr 21
Waning Gibbous
Apr 22
Last Quarter
Apr 29
New
May 6
First Quarter
May 14
Full

Hourly Weather History & Observations

Time (EDT) Temp. Dew Point Humidity Pressure Visibility Wind Dir Wind Speed Gust Speed Precip Events Conditions
12:53 AM 53.1 °F 32.0 °F 45% 30.18 in 10.0 mi SSW 11.5 mph - N/A   Clear
1:53 AM 53.1 °F 32.0 °F 45% 30.15 in 10.0 mi SSW 15.0 mph - N/A   Clear
2:53 AM 51.1 °F 32.0 °F 48% 30.13 in 10.0 mi SSW 13.8 mph - N/A   Clear
3:53 AM 51.1 °F 32.0 °F 48% 30.12 in 10.0 mi SSW 16.1 mph 26.5 mph N/A   Clear
4:53 AM 50.0 °F 32.0 °F 50% 30.11 in 10.0 mi SSW 18.4 mph - N/A   Clear
5:53 AM 50.0 °F 32.0 °F 50% 30.10 in 10.0 mi SSW 19.6 mph - N/A   Clear
6:53 AM 50.0 °F 32.0 °F 50% 30.10 in 10.0 mi SSW 18.4 mph - N/A   Clear
7:53 AM 50.0 °F 33.1 °F 52% 30.10 in 10.0 mi SSW 18.4 mph 24.2 mph N/A   Clear
8:53 AM 54.0 °F 33.1 °F 45% 30.08 in 10.0 mi SSW 16.1 mph - N/A   Clear
9:53 AM 59.0 °F 33.1 °F 38% 30.06 in 10.0 mi SSW 12.7 mph - N/A   Clear
10:53 AM 64.0 °F 34.0 °F 33% 30.04 in 10.0 mi SSW 9.2 mph - N/A   Clear
11:53 AM 68.0 °F 33.1 °F 27% 30.01 in 10.0 mi SSW 10.4 mph - N/A   Clear
12:53 PM 71.1 °F 30.0 °F 22% 29.98 in 10.0 mi South 6.9 mph - N/A   Clear
1:53 PM 73.9 °F 30.9 °F 21% 29.94 in 10.0 mi South 9.2 mph - N/A   Clear
2:53 PM 75.0 °F 30.0 °F 19% 29.90 in 10.0 mi SSW 9.2 mph - N/A   Clear
3:53 PM 78.1 °F 30.9 °F 18% 29.86 in 10.0 mi SW 12.7 mph 17.3 mph N/A   Clear
4:53 PM 77.0 °F 28.0 °F 17% 29.83 in 10.0 mi South 12.7 mph - N/A   Clear
5:53 PM 75.0 °F 32.0 °F 21% 29.82 in 10.0 mi WSW 9.2 mph - N/A   Clear
6:53 PM 72.0 °F 35.1 °F 26% 29.81 in 10.0 mi NE 3.5 mph - N/A   Clear
7:53 PM 64.9 °F 39.9 °F 40% 29.81 in 10.0 mi NNW 5.8 mph - N/A   Clear
8:53 PM 64.0 °F 37.0 °F 37% 29.81 in 10.0 mi NNW 4.6 mph - N/A   Clear
9:53 PM 64.0 °F 37.0 °F 37% 29.81 in 10.0 mi West 4.6 mph - N/A   Clear
10:53 PM 54.0 °F 43.0 °F 66% 29.79 in 10.0 mi South 5.8 mph - N/A   Clear
11:53 PM 60.1 °F 39.0 °F 46% 29.76 in 10.0 mi SSW 6.9 mph - N/A   Clear